Location: Ripley
(48.3812°N, 115.4473°W)
Time: 02:11:35
(UTC+00:00)

RS-15 - Pass Details

Date: 30 June 2022
Orbit: 1881 x 2163 km, 64.8° (Epoch: 10 August)

Event Time Altitude Azimuth Distance (km) Brightness Sun altitude
Rises 06:38:10 0° 318° (NW) 5,694 11.6 -16.9°
Reaches altitude 10° 06:41:40 10° 320° (NW) 4,693 11.0 -17.0°
Maximum altitude 06:54:08 77° 47° (NE) 2,191 8.3 -17.5°
Enters shadow 07:05:38 12° 134° (SE) 4,396 9.4 -17.9°
